| time (UTC) | temp F | wind direction | speed MPH | gust MPH | rain 1hr in | rain 24hr in | rain mn in | humidity % | barometer mb |
| 20260506094529 | 60 | 248 | 8.0 | 21.0 | 0.00 | 0.00 | 0.00 | 75 | 1013.0 |
| 20260506093032 | 60 | 244 | 7.0 | 17.0 | 0.00 | 0.00 | 0.00 | 74 | 1012.8 |
| 20260506091522 | 60 | 201 | 8.0 | 18.0 | 0.00 | 0.00 | 0.00 | 73 | 1012.7 |
| 20260506090021 | 59 | 254 | 10.0 | 22.0 | 0.00 | 0.00 | 0.00 | 73 | 1012.5 |
| 20260506084519 | 59 | 221 | 8.0 | 25.0 | 0.00 | 0.00 | 0.00 | 72 | 1012.4 |
| 20260506083027 | 59 | 232 | 7.0 | 17.0 | 0.00 | 0.00 | 0.00 | 72 | 1011.7 |
| 20260506081517 | 59 | 230 | 10.0 | 25.0 | 0.00 | 0.00 | 0.00 | 71 | 1011.6 |
| 20260506080119 | 59 | 238 | 6.0 | 16.0 | 0.00 | 0.00 | 0.00 | 70 | 1011.5 |
| 20260506073011 | 59 | 265 | 5.0 | 24.0 | 0.00 | 0.00 | 0.00 | 70 | 1011.6 |
| 20260506071507 | 59 | 223 | 8.0 | 17.0 | 0.00 | 0.00 | 0.00 | 72 | 1011.4 |
| 20260506061502 | 59 | 221 | 7.0 | 22.0 | 0.00 | 0.00 | 0.00 | 70 | 1011.5 |
| 20260506044555 | 60 | 256 | 8.0 | 20.0 | 0.00 | 0.00 | 0.00 | 67 | 1011.5 |
| 20260506043053 | 60 | 236 | 9.0 | 18.0 | 0.00 | 0.00 | 0.00 | 68 | 1011.9 |
| 20260506041548 | 60 | 250 | 7.0 | 20.0 | 0.00 | 0.00 | 0.00 | 67 | 1011.7 |
| 20260506040046 | 61 | 306 | 11.0 | 22.0 | 0.00 | 0.00 | 0.00 | 67 | 1011.4 |
| 20260506034604 | 61 | 224 | 9.0 | 23.0 | 0.00 | 0.00 | 0.00 | 67 | 1011.4 |
| 20260506033041 | 61 | 219 | 7.0 | 22.0 | 0.00 | 0.00 | 0.00 | 66 | 1011.3 |
| 20260506031548 | 61 | 175 | 9.0 | 23.0 | 0.00 | 0.00 | 0.00 | 65 | 1011.1 |
| 20260506030036 | 61 | 284 | 12.0 | 26.0 | 0.00 | 0.00 | 0.00 | 65 | 1010.9 |
| 20260506024536 | 62 | 211 | 8.0 | 23.0 | 0.00 | 0.00 | 0.00 | 64 | 1011.0 |
| 20260506023036 | 62 | 206 | 7.0 | 21.0 | 0.00 | 0.00 | 0.00 | 62 | 1011.0 |
| 20260506021534 | 63 | 46 | 9.0 | 30.0 | 0.00 | 0.00 | 0.00 | 61 | 1011.1 |
| 20260506020035 | 63 | 234 | 15.0 | 26.0 | 0.00 | 0.00 | 0.00 | 61 | 1010.9 |
| 20260506014534 | 63 | 222 | 11.0 | 28.0 | 0.00 | 0.00 | 0.00 | 61 | 1011.0 |
| 20260506013034 | 63 | 231 | 12.0 | 27.0 | 0.00 | 0.00 | 0.00 | 60 | 1010.8 |
| 20260506011532 | 63 | 221 | 11.0 | 25.0 | 0.00 | 0.00 | 0.00 | 58 | 1010.9 |
| 20260506010048 | 63 | 202 | 7.0 | 26.0 | 0.00 | 0.00 | 0.00 | 56 | 1010.6 |
| 20260506004527 | 63 | 175 | 12.0 | 24.0 | 0.00 | 0.00 | 0.00 | 55 | 1010.4 |
| 20260506003025 | 63 | 233 | 12.0 | 31.0 | 0.00 | 0.00 | 0.00 | 54 | 1010.2 |
| 20260506001529 | 63 | 270 | 10.0 | 25.0 | 0.00 | 0.00 | 0.00 | 52 | 1009.9 |
| 20260506000125 | 64 | 224 | 9.0 | 29.0 | 0.00 | 0.00 | 0.00 | 51 | 1009.8 |
| 20260505234524 | 64 | 209 | 10.0 | 22.0 | 0.00 | 0.00 | 0.00 | 48 | 1009.8 |
| 20260505233023 | 64 | 236 | 7.0 | 30.0 | 0.00 | 0.00 | 0.00 | 47 | 1009.5 |
| 20260505231522 | 65 | 221 | 7.0 | 24.0 | 0.00 | 0.00 | 0.00 | 47 | 1009.5 |
| 20260505230031 | 65 | 201 | 5.0 | 22.0 | 0.00 | 0.00 | 0.00 | 46 | 1009.2 |
| 20260505224522 | 66 | 252 | 6.0 | 21.0 | 0.00 | 0.00 | 0.00 | 46 | 1009.5 |
| 20260505223019 | 67 | 229 | 7.0 | 18.0 | 0.00 | 0.00 | 0.00 | 44 | 1009.6 |
| 20260505221519 | 69 | 236 | 6.0 | 13.0 | 0.00 | 0.00 | 0.00 | 44 | 1009.7 |
| 20260505220025 | 70 | 225 | 6.0 | 14.0 | 0.00 | 0.00 | 0.00 | 42 | 1009.8 |
| 20260505214518 | 71 | 237 | 5.0 | 22.0 | 0.00 | 0.00 | 0.00 | 43 | 1009.5 |
| 20260505213023 | 72 | 230 | 8.0 | 18.0 | 0.00 | 0.00 | 0.00 | 42 | 1009.4 |
| 20260505210017 | 75 | 327 | 10.0 | 24.0 | 0.00 | 0.00 | 0.00 | 40 | 1009.3 |
| 20260505204513 | 75 | 254 | 6.0 | 16.0 | 0.00 | 0.00 | 0.00 | 40 | 1009.0 |
| 20260505203023 | 76 | 242 | 6.0 | 18.0 | 0.00 | 0.00 | 0.00 | 37 | 1009.0 |
| 20260505201512 | 76 | 254 | 6.0 | 22.0 | 0.00 | 0.00 | 0.00 | 41 | 1009.0 |
| 20260505200010 | 76 | 261 | 7.0 | 19.0 | 0.00 | 0.00 | 0.00 | 39 | 1009.1 |
| 20260505194508 | 76 | 218 | 6.0 | 13.0 | 0.00 | 0.00 | 0.00 | 38 | 1009.2 |
| 20260505193006 | 76 | 275 | 5.0 | 16.0 | 0.00 | 0.00 | 0.00 | 38 | 1009.1 |
| 20260505191506 | 75 | 222 | 8.0 | 18.0 | 0.00 | 0.00 | 0.00 | 39 | 1009.1 |
| 20260505190004 | 75 | 248 | 8.0 | 19.0 | 0.00 | 0.00 | 0.00 | 42 | 1009.1 |
| 20260505184503 | 75 | 157 | 8.0 | 25.0 | 0.00 | 0.00 | 0.00 | 41 | 1009.1 |
| 20260505183001 | 76 | 219 | 7.0 | 18.0 | 0.00 | 0.00 | 0.00 | 40 | 1009.1 |
| 20260505181559 | 75 | 224 | 5.0 | 20.0 | 0.00 | 0.00 | 0.00 | 40 | 1009.1 |
| 20260505180056 | 75 | 256 | 6.0 | 23.0 | 0.00 | 0.00 | 0.00 | 41 | 1009.1 |
| 20260505174555 | 75 | 193 | 5.0 | 18.0 | 0.00 | 0.00 | 0.00 | 41 | 1009.1 |
| 20260505173054 | 74 | 203 | 6.0 | 17.0 | 0.00 | 0.00 | 0.00 | 43 | 1009.4 |
| 20260505171558 | 74 | 238 | 6.0 | 16.0 | 0.00 | 0.00 | 0.00 | 45 | 1009.5 |
| 20260505170148 | 74 | 215 | 8.0 | 13.0 | 0.00 | 0.00 | 0.00 | 43 | 1009.5 |
| 20260505164546 | 73 | 265 | 4.0 | 18.0 | 0.00 | 0.09 | 0.00 | 48 | 1009.4 |
| 20260505163044 | 72 | 243 | 3.0 | 9.0 | 0.00 | 0.09 | 0.00 | 48 | 1009.4 |
| 20260505161541 | 71 | 259 | 2.0 | 10.0 | 0.00 | 0.09 | 0.00 | 50 | 1009.6 |
| 20260505153029 | 67 | 248 | 4.0 | 11.0 | 0.00 | 0.28 | 0.00 | 53 | 1009.4 |
| 20260505151532 | 66 | 180 | 2.0 | 14.0 | 0.00 | 0.28 | 0.00 | 56 | 1009.8 |
| 20260505140114 | 63 | 211 | 1.0 | 10.0 | 0.00 | 0.40 | 0.00 | 52 | 1010.2 |
| 20260505124558 | 57 | 170 | 2.0 | 12.0 | 0.00 | 0.52 | 0.00 | 60 | 1010.0 |
| 20260505123055 | 57 | 206 | 8.0 | 15.0 | 0.00 | 0.52 | 0.00 | 63 | 1009.8 |
| 20260505121551 | 56 | 178 | 3.0 | 12.0 | 0.00 | 0.52 | 0.00 | 62 | 1009.7 |
| 20260505120105 | 55 | 189 | 9.0 | 18.0 | 0.00 | 0.52 | 0.00 | 63 | 1009.3 |
| 20260505114543 | 55 | 207 | 7.0 | 18.0 | 0.00 | 0.54 | 0.00 | 64 | 1009.0 |
| 20260505113044 | 53 | 177 | 6.0 | 14.0 | 0.00 | 0.54 | 0.00 | 67 | 1009.0 |
| 20260505111534 | 52 | 237 | 6.0 | 12.0 | 0.00 | 0.54 | 0.00 | 70 | 1008.9 |
| 20260505101524 | 48 | 269 | 6.0 | 15.0 | 0.00 | 0.61 | 0.00 | 75 | 1008.6 |
| 20260505100027 | 47 | 221 | 4.0 | 13.0 | 0.00 | 0.61 | 0.00 | 77 | 1008.3 |